TimeEST,TemperatureF,Dew PointF,Humidity,Sea Level PressureIn,VisibilityMPH,Wind Direction,Wind SpeedMPH,Gust SpeedMPH,PrecipitationIn,Events,Conditions,WindDirDegrees,DateUTC
12:53 AM,41.0,27.0,57,29.90,10.0,North,4.6,-,N/A,,Clear,350,2013-02-13 05:53:00
1:53 AM,42.1,27.0,55,29.89,10.0,North,4.6,-,N/A,,Overcast,10,2013-02-13 06:53:00
2:53 AM,41.0,26.1,55,29.86,10.0,North,6.9,-,N/A,,Overcast,10,2013-02-13 07:53:00
3:53 AM,39.9,27.0,60,29.83,10.0,North,4.6,-,N/A,,Overcast,10,2013-02-13 08:53:00
4:53 AM,39.0,28.0,65,29.81,10.0,North,6.9,-,N/A,,Overcast,360,2013-02-13 09:53:00
5:53 AM,37.9,28.0,68,29.80,10.0,North,4.6,-,N/A,,Overcast,360,2013-02-13 10:53:00
6:53 AM,37.9,28.0,68,29.81,10.0,NNW,4.6,-,N/A,,Overcast,330,2013-02-13 11:53:00
7:53 AM,37.0,28.0,70,29.83,9.0,NNW,8.1,-,N/A,,Overcast,330,2013-02-13 12:53:00
8:53 AM,36.0,28.0,73,29.85,6.0,North,8.1,-,N/A,,Haze,350,2013-02-13 13:53:00
9:33 AM,35.6,28.4,75,29.84,2.5,NNW,8.1,-,0.00,Snow,Snow,340,2013-02-13 14:33:00
9:43 AM,33.8,30.2,87,29.85,1.5,North,6.9,-,0.00,Snow,Snow,360,2013-02-13 14:43:00
9:53 AM,34.0,30.0,85,29.86,1.0,North,8.1,-,0.00,Snow,Light Snow,350,2013-02-13 14:53:00
10:19 AM,33.8,30.2,87,29.86,2.0,NNW,9.2,-,0.00,Snow,Light Snow,330,2013-02-13 15:19:00
10:27 AM,33.8,28.4,81,29.86,3.0,NNW,8.1,-,0.00,,Overcast,340,2013-02-13 15:27:00
10:45 AM,33.8,28.4,81,29.86,1.0,North,9.2,-,0.00,Snow,Light Snow,350,2013-02-13 15:45:00
10:53 AM,33.1,28.9,85,29.87,1.0,NNW,6.9,-,0.00,Snow,Light Snow,340,2013-02-13 15:53:00
10:58 AM,33.8,28.4,81,29.86,0.8,NNW,5.8,-,0.00,Snow,Light Snow,330,2013-02-13 15:58:00
11:10 AM,32.0,30.2,93,29.86,0.8,NNW,8.1,-,0.00,Snow,Light Snow,330,2013-02-13 16:10:00
11:24 AM,32.0,30.2,93,29.86,0.5,NNW,6.9,-,0.01,Fog-Snow,Snow,330,2013-02-13 16:24:00
11:32 AM,32.0,30.2,93,29.86,0.5,NW,6.9,-,0.02,Fog-Snow,Snow,320,2013-02-13 16:32:00
11:53 AM,32.0,30.0,92,29.87,0.5,NNW,5.8,-,0.04,Fog-Snow,Snow,330,2013-02-13 16:53:00
12:08 PM,32.0,30.2,93,29.86,0.8,NNW,4.6,-,0.01,Snow,Light Snow,330,2013-02-13 17:08:00
12:18 PM,32.0,30.2,93,29.86,1.0,NNW,4.6,-,0.01,Snow,Light Snow,340,2013-02-13 17:18:00
12:25 PM,33.8,30.2,87,29.86,1.0,North,3.5,-,0.01,Snow,Light Snow,350,2013-02-13 17:25:00
12:48 PM,33.8,30.2,87,29.86,0.8,NW,3.5,-,0.01,Snow,Light Snow,320,2013-02-13 17:48:00
12:53 PM,34.0,30.9,89,29.87,0.8,NW,5.8,-,0.01,Snow,Light Snow,320,2013-02-13 17:53:00
1:00 PM,33.8,30.2,87,29.86,1.0,NW,4.6,-,0.01,Snow,Light Snow,310,2013-02-13 18:00:00
1:16 PM,33.8,30.2,87,29.85,1.2,Calm,Calm,-,0.01,Snow,Light Snow,0,2013-02-13 18:16:00
1:24 PM,35.6,33.8,93,29.85,2.0,NW,3.5,-,0.01,Snow,Light Snow,310,2013-02-13 18:24:00
1:36 PM,35.6,32.0,87,29.85,3.0,Calm,Calm,-,0.01,Snow,Light Snow,0,2013-02-13 18:36:00
1:44 PM,35.6,32.0,87,29.84,5.0,Calm,Calm,-,0.01,Snow,Light Snow,0,2013-02-13 18:44:00
1:53 PM,36.0,33.1,89,29.85,9.0,Calm,Calm,-,0.01,,Overcast,0,2013-02-13 18:53:00
2:53 PM,39.0,33.1,79,29.84,10.0,West,5.8,-,N/A,,Overcast,270,2013-02-13 19:53:00
3:00 PM,37.4,32.0,81,29.84,10.0,WNW,5.8,-,N/A,,Overcast,300,2013-02-13 20:00:00
3:09 PM,39.2,33.8,81,29.84,10.0,Variable,3.5,-,N/A,,Overcast,0,2013-02-13 20:09:00
3:53 PM,41.0,32.0,70,29.86,10.0,WNW,5.8,-,N/A,,Overcast,300,2013-02-13 20:53:00
4:53 PM,43.0,30.0,60,29.86,10.0,Calm,Calm,-,N/A,,Partly Cloudy,0,2013-02-13 21:53:00
5:53 PM,41.0,28.9,62,29.88,10.0,WSW,9.2,-,N/A,,Partly Cloudy,250,2013-02-13 22:53:00
6:53 PM,39.0,28.9,67,29.90,10.0,SW,4.6,-,N/A,,Clear,230,2013-02-13 23:53:00
7:53 PM,37.9,30.0,73,29.93,10.0,SW,6.9,-,N/A,,Clear,230,2013-02-14 00:53:00
8:53 PM,36.0,30.0,79,29.94,10.0,SW,3.5,-,N/A,,Clear,220,2013-02-14 01:53:00
9:53 PM,35.1,28.9,78,29.96,10.0,South,3.5,-,N/A,,Clear,170,2013-02-14 02:53:00
10:53 PM,35.1,28.9,78,29.95,10.0,South,3.5,-,N/A,,Clear,170,2013-02-14 03:53:00
11:53 PM,34.0,28.9,82,29.96,9.0,South,4.6,-,N/A,,Clear,180,2013-02-14 04:53:00